Weather History for KFHU - October, 2010

Change the Weather History Date:

Saturday, October 9, 2010

  Actual Average Record
Temperature  
Mean Temperature 67 °F -  
Max Temperature 82 °F 80 °F 93 °F (1996)
Min Temperature 52 °F 58 °F 44 °F (1982)
Cooling Degree Days 2    
Growing Degree Days 17 (Base 50)    
Moisture  
Dew Point 36 °F    
Average Humidity 34    
Maximum Humidity 50    
Minimum Humidity 21    
Precipitation  
Precipitation 0.00 in - - ()
Sea Level Pressure  
Sea Level Pressure 30.04 in    
Wind  
Wind Speed 6 mph (WSW)    
Max Wind Speed 13 mph    
Max Gust Speed -    
Visibility 10 miles    
Events      
Averages and records for this station are not official NWS values.
T = Trace of Precipitation, MM = Missing Value Source: NWS Daily Summary

Daily Weather History Graph

Daily Weather History Graph

Search for Another Location

Airport or City:

Trip Planner

Search our weather history database for the weather conditions in past years. The results will help you decide how hot, cold, wet, or windy it might be!

Date:

Astronomy

Oct. 09, 2010 Rise Set
Actual Time 6:20 AM MST 5:56 PM MST
Civil Twilight 5:56 AM MST 6:20 PM MST
Nautical Twilight 5:27 AM MST 6:48 PM MST
Astronomical Twilight 4:59 AM MST 7:17 PM MST
Moon 8:30 AM MST (10/9) 7:10 PM MST (10/9)
Length of Visible Light 12h 24m
Length of Day
11h 35m
Waxing Crescent, 6% of the Moon is Illuminated
Oct 9
Waxing Crescent
Oct 14
First Quarter
Oct 22
Full
Oct 30
Last Quarter
Nov 5
New

Hourly Weather History & Observations

Time (MST) Temp. Dew Point Humidity Pressure Visibility Wind Dir Wind Speed Gust Speed Precip Events Conditions
12:56 AM 57.0 °F 37.0 °F 47% 30.05 in 10.0 mi SSW 5.8 mph - N/A   Unknown
1:56 AM 57.0 °F 35.1 °F 44% 30.05 in 10.0 mi SW 8.1 mph - N/A   Unknown
2:56 AM 55.9 °F 35.1 °F 45% 30.04 in 10.0 mi SW 6.9 mph - N/A   Unknown
3:56 AM 54.0 °F 34.0 °F 47% 30.05 in 10.0 mi West 3.5 mph - N/A   Clear
4:56 AM 52.0 °F 34.0 °F 50% 30.07 in 10.0 mi SW 5.8 mph - N/A   Unknown
5:56 AM 53.1 °F 34.0 °F 48% 30.09 in 10.0 mi SW 8.1 mph - N/A   Unknown
6:56 AM 55.9 °F 34.0 °F 44% 30.11 in 10.0 mi SW 4.6 mph - N/A   Unknown
7:56 AM 63.0 °F 37.9 °F 40% 30.10 in 10.0 mi Calm Calm - N/A   Clear
8:56 AM 68.0 °F 39.0 °F 35% 30.10 in 10.0 mi ESE 4.6 mph - N/A   Clear
9:56 AM 72.0 °F 39.9 °F 31% 30.10 in 10.0 mi ESE 4.6 mph - N/A   Clear
10:56 AM 75.0 °F 39.0 °F 27% 30.09 in 10.0 mi SSE 5.8 mph - N/A   Clear
11:56 AM 77.0 °F 39.0 °F 25% 30.07 in 10.0 mi Variable 4.6 mph - N/A   Clear
12:56 PM 79.0 °F 39.9 °F 25% 30.04 in 10.0 mi Calm Calm - N/A   Clear
1:56 PM 81.0 °F 39.9 °F 23% 30.00 in 10.0 mi Variable 4.6 mph - N/A   Clear
2:56 PM 82.0 °F 37.9 °F 21% 29.98 in 10.0 mi Variable 3.5 mph - N/A   Clear
3:56 PM 82.0 °F 37.9 °F 21% 29.98 in 10.0 mi Calm Calm - N/A   Clear
4:56 PM 79.0 °F 37.0 °F 22% 29.98 in 10.0 mi WNW 6.9 mph - N/A   Clear
5:56 PM 71.1 °F 37.0 °F 29% 30.01 in 10.0 mi WNW 4.6 mph - N/A   Clear
6:56 PM 69.1 °F 35.1 °F 29% 30.01 in 10.0 mi West 12.7 mph - N/A   Clear
7:56 PM 66.0 °F 34.0 °F 30% 30.02 in 10.0 mi West 11.5 mph - N/A   Clear
8:56 PM 64.9 °F 33.1 °F 31% 30.02 in 10.0 mi West 11.5 mph - N/A   Clear
9:56 PM 63.0 °F 33.1 °F 33% 30.02 in 10.0 mi West 10.4 mph - N/A   Clear
10:56 PM 62.1 °F 32.0 °F 32% 30.01 in 10.0 mi West 11.5 mph - N/A   Clear
11:56 PM 63.0 °F 32.0 °F 31% 29.99 in 10.0 mi WSW 12.7 mph - N/A   Clear